Regional Weather Roundup
Issued by NWS

Home | Current Version | Previous Version | Text Only | Print | Product List | Glossary On
Versions: 1 2 3 4 5 6 7 8 9 10 11 12 13 14 15 16 17 18 19 20 21 22 23 24 25 26 27 28 29 30 31 32 33 34 35 36 37 38 39 40 41 42 43 44 45 46 47 48 49
000
ASUS45 KBOU 211007
RWRCO

WEATHER ROUNDUP FOR COLORADO
NATIONAL WEATHER SERVICE DENVER/BOULDER CO
400 AM MDT THU AUG 21 2014

NOTE: "FAIR" INDICATES FEW OR NO CLOUDS BELOW 12000 FEET WITH NO
SIGNIFICANT WEATHER AND/OR OBSTRUCTIONS TO VISIBILITY.

COZ001>005-013-030-031-211100-
...NORTHWEST COLORADO...

CITY           SKY/WX    TMP DP  RH WIND       PRES   REMARKS
CRAIG          RAIN      55  53  93 S3        30.21R
HAYDEN         CLOUDY    52  46  82 SE5       30.21S
MEEKER         LGT RAIN  56  52  86 CALM      30.21R
MOUNT WERNER   NOT AVBL
STEAMBOAT SPGS MOCLDY    47  46  93 CALM      30.22S
WALDEN         CLOUDY    45  43  93 SE5       30.27R
$$

COZ006>008-011-211100-
...WEST CENTRAL VALLEYS...

CITY           SKY/WX    TMP DP  RH WIND       PRES   REMARKS
GRAND JUNCTION CLEAR     57  51  80 E3        30.11R
MONTROSE       CLEAR     55  48  77 SE8       30.19R
EAGLE          PTCLDY    50  48  93 CALM      30.24R
RIFLE          MOCLDY    57  52  83 E3        30.15S
DELTA          NOT AVBL
NUCLA          CLEAR     55  45  67 SE12      30.22S
$$

COZ017>023-064>068-211100-
...SOUTHWEST COLORADO...

CITY           SKY/WX    TMP DP  RH WIND       PRES   REMARKS
DURANGO        CLEAR     50  39  66 S3        30.20R
CORTEZ         CLEAR     52  45  77 E5        30.18F
PAGOSA SPRINGS   N/A     48  40  75 CALM      30.27S
TELLURIDE      CLEAR     46  43  87 SE6       30.38R
WOLF CREEK PAS NOT AVBL
$$

COZ009-010-012-014-032>034-037-058>063-211100-
...CENTRAL COLORADO...

CITY           SKY/WX    TMP DP  RH WIND       PRES   REMARKS
ASPEN          MOCLDY    48  43  82 S7        30.27S
BUENA VISTA    PTCLDY    55  40  58 W12       30.25R
COPPER MTN     MOCLDY    45  37  76 SW7       30.51R
BERTHOUD PASS  FAIR      36  36 100 NW18G25   30.52S
COTTONWOOD PAS CLEAR     55  36  47 W15G24    30.37R
GUNNISON       CLEAR     46  36  66 N5        30.31S
KREMMLING      CLOUDY    50  46  87 CALM      30.26S
LEADVILLE      PTCLDY    40  36  86 N6        30.38R
SALIDA         CLEAR     62  40  44 W9        30.29R
SUNLIGHT       PTCLDY    43  41  93 CALM      30.45S
WILKERSON PASS PTCLDY    46  34  61 W7        30.47S
$$

COZ069>075-211100-
...SAN LUIS VALLEY/SANGRE DE CRISTO MOUNTAINS...

CITY           SKY/WX    TMP DP  RH WIND       PRES   REMARKS
ALAMOSA        CLEAR     49  42  77 CALM      30.23S
LA VETA PASS   NOT AVBL
SAGUACHE       PTCLDY    54  41  62 NW7G16    30.27R
$$

COZ035-036-038>040-211100-
...NORTHERN COLORADO FRONT RANGE...

CITY           SKY/WX    TMP DP  RH WIND       PRES   REMARKS
DENVER INTL AP PTCLDY    61  56  83 S7        30.04F
DMNS CITY PARK   N/A     61  56  83 S3        30.05R
AURORA         MOCLDY    59  54  83 S9        30.07F
FRONT RANGE AP NOT AVBL
ERIE MUNI ARPT CLEAR     58  55  88 CALM      30.03S
BOULDER MUN AP CLEAR     61  54  77 S3        30.03S
CENTENNIAL     CLEAR     58  52  80 SE8       30.08S
BROOMFIELD     CLEAR     59  55  88 W6        30.06S
FORT COLLINS   PTCLDY    61  52  72 CALM      30.04R
LONGMONT       PTCLDY    58  53  83 NW3       30.04S
$$

COZ041-046-047-076>085-087-088-211100-
...PIKES PEAK/PALMER DIVIDE AND SOUTHERN FOOTHILLS...

CITY           SKY/WX    TMP DP  RH WIND       PRES   REMARKS
COLO. SPRINGS  PTCLDY    63  49  60 NW10      30.11R
A. F. ACADEMY  PTCLDY    56  48  74 NE8       30.12S
ELLICOTT       PTCLDY    58  54  86 N5        30.08R
FALCON         MOCLDY    60  48  62 N10       30.14S
FORT CARSON    PTCLDY    61  50  67 N10       30.07R
LIMON          PTCLDY    59  56  89 NW5       30.03R
MONUMENT HILL  PTCLDY    52  46  82 W5        30.14F
TRINIDAD       MOCLDY    63  45  51 W6        30.07R
$$

COZ042>045-048>051-090-091-211100-
...NORTHEAST COLORADO...

CITY           SKY/WX    TMP DP  RH WIND       PRES   REMARKS
GREELEY ARPT   CLEAR     57  50  77 CALM      30.02R
AKRON          MOCLDY    63  59  87 W7        29.98S
BURLINGTON     CLEAR     64  55  72 NW9       29.94R
WRAY             N/A     69  58  66 N13       29.91S
STERLING       MOCLDY    68  61  77 NW5       29.93S
HOLYOKE        NOT AVBL
FORT MORGAN    MOCLDY    61  53  76 W6        30.00R
$$

COZ086-089-092>099-211100-
...SOUTHEAST COLORADO...

CITY           SKY/WX    TMP DP  RH WIND       PRES   REMARKS
PUEBLO         PTCLDY    68  52  56 CALM      29.99R
LA JUNTA       PTCLDY    68  55  63 NW7       29.94R
LAMAR          CLEAR     68  56  65 N8        29.87R
SPRINGFIELD      N/A     69  59  70 SW9       29.93R
$$



USA.gov is the U.S. government's official web portal to all federal, state and local government web resources and services.